Tracking 20710 objects as of 30-May-2020
HD Live streaming from Space Station
objects crossing your sky now

FENGYUN 1C DEB

Track FENGYUN 1C DEB now!
10-day predictions


NORAD ID: 31995
Int'l Code: 1999-025CPY
Perigee: 838.7 km
Apogee: 1,046.6 km
Inclination: 98.4 °
Period: 103.7 minutes
Semi major axis: 7313 km
RCS: 0.0104 m2 (small)
Launch date: May 10, 1999
Source: People's Republic of China (PRC)
Launch site: Taiyaun Space Center, China (TSC)

Note: This is SATELLITE DEBRIS
aabbcc
Your satellite tracking list
Your tracking list is empty




NASA's NSSDC Master Catalog

Two Line Element Set (TLE):
1 31995U 99025CPY 20128.96795998 +.00000477 +00000-0 +39835-3 0  9996
2 31995 098.4295 031.9083 0142129 181.9293 178.1336 13.88045585345684
Source of the keplerian elements: AFSPC